STARLINK-31411

operational
NORAD ID: 59182 Int'l Des: 2024-045 Owner: SPXS Country: US Constellation: starlink
LEOCIRCULAR

Über STARLINK-31411

Beschreibung wird geladen...

Live-Position

3D-Globus wird geladen...

Nächste Überflüge

Höhenverlauf

Altitude vs Time

uPlot chart will show altitude changes over time

Zweizeiliger Elementsatz

1 59182U 24045E 25251.12370433 -.00002713 00000-0 -89179-4 0 9991
2 59182 43.0049 43.2922 0000511 288.1721 71.9075 15.27555777 85244
Epoch: 8. Sept. 2025 • Age: 13 hours

Aktueller Status

Höhe 485.6 km
Geschwindigkeit 7.63 km/s
Subsatellitenpunkt 38.80°N, 125.87°W
Startdatum 11. März 2024
Alter 1.4 years
Typ internet

Technische Details

Klassifizierung Payload
Masse 730.00 kg
Trockenmasse 700.00 kg
Gesamtmasse 730.00 kg
Länge 0.30 m
Durchmesser 4.10 m
Spannweite 29.00 m
Form Box + pan
Hersteller SPXS
Bus-Typ Starlink V2M
Phasenstatus In Orbit
Besitzer/Staat SPXS/US

Große Konstellationen

Loading constellations...